User: anonymous   Login
Location: Oshawa
(43.9000°N, 78.8670°W)
Time: 11:00:56
(UTC-04:00)
Language:

Iridium 54 - Orbit

View from above orbital plane
View from above orbital plane
View from above satellite
View from above satellite

Ground track
Ground track

The orbit data is extracted from the following two-line orbital elements,

1 25171U 98010C   18173.20974499 -.00000037  00000-0 -20144-4 0  9995
2 25171  86.3978 195.7454 0002309  87.3907 272.7553 14.34220352 64964
Epoch (UTC): 22 June 2018 05:02:01
Eccentricity: 0.0002309
inclination: 86.3978°
perigee height: 776 km
apogee height: 779 km
right ascension of ascending node: 195.7454°
argument of perigee: 87.3907°
revolutions per day: 14.34220352
mean anomaly at epoch: 272.7553°
orbit number at epoch: 6496

The dashed part of the orbit path shows where the satellite is in the earth's shadow,  

DLR